Home   Weather   41°27'N, 81°44'W   Past weeks
Flag for USA

Past Weather in 41°27'N, 81°44'W, USA — Yesterday and Last 2 Weeks

Now
31 °F

Passing clouds.


Feels Like: 24 °F
Forecast: 38 / 26 °F
Wind: 7 mph from North

Location: Cleveland-Hopkins International Airport

Current Time: Feb 22, 2019 at 5:22:41 am

Latest Report: Feb 22, 2019 at 3:51 am


Visibility: 9 mi

Pressure: 30.37 "Hg

Humidity: 79%

Dew Point: 25 °F

Location of 41°27'N, 81°44'WLocation

Past Weather in 41°27'N, 81°44'W — Graph

°F

41°27'N, 81°44'W Temperature Yesterday

Maximum temperature yesterday: 43 °F (at 2:51 pm)
Minimum temperature yesterday: 35 °F (at 6:56 am)
Average temperature yesterday: 38 °F

High & Low Weather Summary for the Past Weeks

 TemperatureHumidityPressure
High60 °F (Feb 7, 7:51 pm)96% (Feb 7, 3:51 am)30.91 "Hg (Feb 7, 3:51 am)
Low12 °F (Feb 19, 5:51 am)44% (Feb 14, 10:51 pm)29.49 "Hg (Feb 12, 3:17 pm)
Average31 °F76%30.11 "Hg
* Reported Feb 7 3:51 am — Feb 22 3:51 am, 41°27'N, 81°44'W. Weather by CustomWeather, © 2019

Note: Actual official high and low records may vary slightly from our data, if they occured in-between our weather recording intervals... More about our weather records

Advertising

41°27'N, 81°44'W Weather History for the Previous 24 Hours

Scroll right to see more
 ConditionsComfort  
Time TempWeatherWind HumidityBarometerVisibility
3:51 am
Fri, Feb 22
31 °FPassing clouds.7 mph79%30.37 "Hg9 mi
2:51 am32 °FHigh level clouds.5 mph75%30.36 "Hg10 mi
1:51 am34 °FHigh level clouds.5 mph70%30.34 "Hg9 mi
12:51 am35 °FOvercast.6 mph67%30.32 "Hg10 mi
11:51 pm
Thu, Feb 21
35 °FOvercast.7 mph70%30.32 "Hg10 mi
10:51 pm36 °FOvercast.9 mph73%30.33 "Hg10 mi
9:51 pm36 °FOvercast.8 mph73%30.30 "Hg10 mi
8:51 pm36 °FMostly cloudy.12 mph73%30.28 "Hg10 mi
7:51 pm37 °FMostly cloudy.10 mph67%30.27 "Hg10 mi
6:51 pm38 °FPassing clouds.13 mph63%30.25 "Hg10 mi
5:51 pm39 °FHigh level clouds.14 mph62%30.24 "Hg10 mi
4:51 pm41 °FHigh level clouds.13 mph58%30.22 "Hg10 mi
3:51 pm42 °FHigh level clouds.13 mph55%30.19 "Hg10 mi
2:51 pm43 °FPartly sunny.21 mph53%30.16 "Hg10 mi
1:51 pm42 °FScattered clouds.20 mph55%30.16 "Hg10 mi
11:51 am40 °FScattered clouds.20 mph63%30.17 "Hg10 mi
11:15 am38 °FBroken clouds.18 mph68%30.15 "Hg10 mi
10:51 am38 °FPartly sunny.17 mph68%30.16 "Hg10 mi
9:51 am37 °FPartly sunny.15 mph73%30.14 "Hg10 mi
8:51 am36 °FOvercast.16 mph73%30.13 "Hg10 mi
7:51 am35 °FOvercast.14 mph75%30.09 "Hg10 mi
6:56 am35 °FOvercast.9 mph75%30.04 "Hg10 mi
6:25 am36 °FOvercast.13 mph70%30.04 "Hg10 mi
5:51 am36 °FOvercast.15 mph73%30.06 "Hg10 mi
Weather by CustomWeather, © 2019

See weather overview